Skip Page Navigation
NASA JPL Caltech
NASA Logo - Jet Propulsion Laboratory + View the NASA Portal
+ Center for Near-Earth Object Studies
JPL Home Earth Solar System Stars & Galaxies Technology
JPL Solar System Dynamics
BODIES ORBITS EPHEMERIDES TOOLS PHYSICAL DATA DISCOVERY FAQ SITE MAP
JPL Small-Body Database Browser
Search: [ help ]  
72118 (2000 YK63)
Classification: Main-belt Asteroid          SPK-ID: 2072118
Ephemeris | Orbit Diagram | Orbital Elements | Mission Design | Physical Parameters | Discovery Circumstances ]

[ show orbit diagram ]
Orbital Elements at Epoch 2459396.5 (2021-Jul-01.0) TDB
Reference: JPL 25 (heliocentric ecliptic J2000)
 Element Value Uncertainty (1-sigma)   Units 
e .1282532505468794 2.6514e-08  
a 2.402608839937431 8.5868e-09 au
q 2.094466446422788 6.3353e-08 au
i 1.492111718016892 5.1881e-06 deg
node 330.3083749115066 0.00011958 deg
peri 95.26162941190974 0.00012174 deg
M 222.2934485830771 2.209e-05 deg
tp 2459916.825529037325
(2022-Dec-03.32552904)
8.4196e-05 TDB
period 1360.263462602531
3.72
7.2922e-06
1.996e-08
d
yr
n .2646546127992208 1.4188e-09 deg/d
Q 2.710751233452074 9.6881e-09 au
  Orbit Determination Parameters
   # obs. used (total)      1012  
   data-arc span      8431 days (23.08 yr)  
   first obs. used      1998-05-18  
   last obs. used      2021-06-17  
   planetary ephem.      DE441  
   SB-pert. ephem.      SB441-N16  
   condition code      0  
   norm. resid. RMS      .5246  
   source      ORB  
   producer      Otto Matic  
   solution date      2021-Jul-09 14:33:14  

Additional Information
 Earth MOID = 1.10838 au 
 Jupiter MOID = 2.55846 au 
 T_jup = 3.513 
[ show covariance matrix ]

Ephemeris | Orbit Diagram | Orbital Elements | Mission Design | Physical Parameters | Discovery Circumstances ]

Physical Parameter Table
Parameter Symbol Value Units Sigma Reference Notes
absolute magnitude H 15.78   n/a E2021B10  
diameter diameter 3.939 km 0.242 urn:nasa:pds:neowise_diameters_albedos::2.0[mainbelt] (http://adsabs.harvard.edu/abs/2011ApJ...741...68M)  
geometric albedo albedo 0.041   0.009 urn:nasa:pds:neowise_diameters_albedos::2.0[mainbelt] (http://adsabs.harvard.edu/abs/2011ApJ...741...68M)  

72118 (2000 YK63)          Discovered 2000-Dec-30 by LINEAR at Socorro
Reference: 20031109/Numbers.arcLast Updated: 2004-04-19

Alternate Designations
 2000 YK63 = 1998 KG10 
Ephemeris | Orbit Diagram | Orbital Elements | Mission Design | Physical Parameters | Discovery Circumstances ]
ABOUT SSD CREDITS/AWARDS PRIVACY/COPYRIGHT GLOSSARY LINKS
FirstGov 2021-Aug-01 02:13 UT
(server date/time)  
NASA Home Page
Site Manager:   Ryan S. Park
Webmaster  Alan B. Chamberlin